Location: Silverdale
(47.6506°N, 122.6941°W)
Time: 04:31:10
(UTC+00:00)

Altair - Pass Details

Date: 06 October 2022
Orbit: 1501 x 1682 km, 47.2° (Epoch: 05 December)

Event Time Altitude Azimuth Distance (km) Brightness Sun altitude
Rises 17:18:17 0° 287° (WNW) 4,867 9.6 26.4°
Reaches altitude 10° 17:21:25 10° 285° (WNW) 3,898 9.2 26.8°
Maximum altitude 17:31:17 65° 207° (SSW) 1,816 8.5 27.9°
Drops below altitude 10° 17:41:16 10° 128° (SE) 3,938 11.2 29.0°
Sets 17:44:27 0° 126° (SE) 4,918 11.3 29.4°
